Other Public Products
Issued by NWS Grand Forks, ND

Home | Current Version | Previous Version | Graphics & Text | Print | Product List | Glossary On
Versions: 1 2 3 4 5 6 7 8 9 10 11 12 13 14 15 16 17 18 19 20 21 22 23 24 25 26 27 28 29 30 31 32 33 34 35 36 37 38 39 40 41 42 43 44 45 46 47 48 49 50
000
FPUS83 KFGF 041710
OPUFGF
PRAIRIE TO PINES WEATHER ROUNDUP
NATIONAL WEATHER SERVICE EASTERN NORTH DAKOTA/GRAND FORKS ND
1200 PM CDT MON MAY 04 2015

 **SATELLITE DATA USED TO AUGMENT SKY COVER AT AUTOMATED STATIONS**
 *****  WEATHER ACROSS EASTERN NORTH DAKOTA  *****

CITY           SKY/WX    TMP DP  RH WIND       PRES   REMARKS
GRAND FORKS    MOSUNNY   63  30  28 S6        30.23R
GRAND FORKS AF SUNNY     63  30  28 VRB6      30.23R
GRAND CITY NWS   N/A     63 N/A N/A W5          N/A
BUXTON         NOT AVBL
DEVILS LAKE    SUNNY     61  30  31 SW10      30.22S
FARGO          FAIR      63  28  26 VRB3      30.23R
WAHPETON ARPT  PTSUNNY   63  30  29 N6        30.24R
$$

 *****  WEATHER ACROSS CENTRAL AND WESTERN NORTH DAKOTA  *****

CITY           SKY/WX    TMP DP  RH WIND       PRES   REMARKS
JAMESTOWN      MOSUNNY   61  26  26 S9        30.23S
BISMARCK       MOSUNNY   64  26  23 S13G18    30.23F
MINOT          MOSUNNY   64  22  20 SE9       30.19F
MINOT AFB      SUNNY     66  24  20 SW14      30.18F
GARRISON         N/A     63  27  25 S13       30.20F
WILLISTON      SUNNY     66  26  22 S13G21    30.14F
DICKINSON      SUNNY     62  31  31 S22G29    30.16F
HETTINGER      PTSUNNY   55  35  47 S17G25    30.22S
$$

 *****  OTHER OBSERVATIONS NORTHEAST NORTH DAKOTA  *****

CITY           SKY/WX    TMP DP  RH WIND       PRES   REMARKS
WALHALLA       FAIR      63  28  27 NW7       30.20S
LANGDON        FAIR      63  27  25 W13       30.22R
CAVALIER       FAIR      63  32  31 SW9       30.21S
GRAFTON        FAIR      63  32  31 W10G18    30.22F
CANDO          FAIR      63  25  23 SW7       30.22S
FORT TOTTEN      N/A     63  28  26 S5        29.95
ROLLA          NOT AVBL
RUGBY          NOT AVBL
 ***** THE ABOVE OBSERVATIONS ARE NON NWS ARE NOT QUALITY
        CONTROLLED AND MAY MIS-REPORT RAIN FOR SNOW...
$$

 *****  OTHER OBSERVATIONS SOUTHEAST NORTH DAKOTA *****

CITY           SKY/WX    TMP DP  RH WIND       PRES   REMARKS
COOPERSTOWN    NOT AVBL
VALLEY CITY    FAIR      59  28  31 CALM      30.25R
OAKES            N/A     61  32  33 SW3       30.24S
GWINNER        SUNNY     63  30  29 N3        30.25R
SHEYENNE NWR     N/A     65  28  25 NE5       29.95S
BUFFALO        NOT AVBL
WYNDMERE       NOT AVBL
 ***** THE ABOVE OBSERVATIONS ARE NON NWS ARE NOT QUALITY
       CONTROLLED AND MAY MIS-REPORT RAIN FOR SNOW...
$$

  *****  WEATHER ACROSS NORTHERN MINNESOTA  *****

CITY           SKY/WX    TMP DP  RH WIND       PRES   REMARKS
FLAG ISLAND    SUNNY     48  39  71 S13       30.22R
WARROAD        SUNNY     55  34  44 E8        30.23S
ROSEAU         SUNNY     61  30  31 W6        30.22F
HALLOCK        SUNNY     63  30  29 SW6       30.21S
THF RVR FALLS  SUNNY     61  30  31 S6        30.24S
HALSTAD        NOT AVBL
FOSSTON        SUNNY     63  28  27 W5        30.24S
BAUDETTE       SUNNY     57  27  31 NW8       30.23R
WASKISH        SUNNY     57  36  44 SW8       30.24R
CROOKSTON      MOSUNNY   63  34  34 CALM      30.24R
$$
  *****  WEATHER ACROSS CENTRAL AND WEST MINNESOTA  *****

CITY           SKY/WX    TMP DP  RH WIND       PRES   REMARKS
BEMIDJI        SUNNY     58  26  30 NW8G17    30.24S
PARK RAPIDS    PTSUNNY   61  32  33 CALM      30.23R
WADENA         PTSUNNY   61  34  36 N8        30.23R
DETROIT LAKES  PTSUNNY   59  32  36 NW3       30.25R
MOORHEAD       MOSUNNY   61  27  27 W7        30.24R
FERGUS FALLS   PTSUNNY   63  34  34 N5        30.24R
ELBOW LAKE     FAIR      63  30  29 NW3       30.22R
MORRIS MN      MOSUNNY   66  28  24 N8        30.20S
STAPLES        PTSUNNY   59  30  33 NW6       30.23R
WHEATON        MOSUNNY   63  30  29 N5        30.23S
$$
  *****  WEATHER ELSEWHERE ACROSS MINNESOTA  *****

CITY           SKY/WX    TMP DP  RH WIND       PRES   REMARKS
DULUTH         MOSUNNY   61  25  25 N13       30.19R
INTRNTL FALLS  SUNNY     58  30  34 NE10      30.21R
ELY            SUNNY     57  25  28 N7G17     30.19S
CLOQUET        MOSUNNY   61  25  25 NW13G20   30.20R
BRAINERD       PTSUNNY   61  35  37 N13       30.23R
HIBBING        SUNNY     60  22  23 N12G18    30.21R
ALEXANDRIA     MOSUNNY   64  30  27 N10G18    30.23R
SAINT CLOUD    SUNNY     65  31  28 VRB7G18   30.20R
MINNEAPOLIS    MOSUNNY   66  33  29 N15G23    30.19S
$$

  *****  WEATHER ACROSS SOUTH DAKOTA  *****

CITY           SKY/WX    TMP DP  RH WIND       PRES   REMARKS
SIOUX FALLS    PTSUNNY   67  32  27 E13G18    30.17F
BROOKINGS      MOSUNNY   64  28  25 E9        30.21S
WATERTOWN      MOSUNNY   64  26  23 N6        30.22R
HURON          PTSUNNY   69  24  18 NE9       30.19F
SISSETON         N/A     66  24  20 N9        30.21R
ABERDEEN       PTSUNNY   67  23  19 N9        30.23R
MITCHELL       MOSUNNY   69  25  19 NE10      30.19R
PIERRE         CLOUDY    63  26  24 E10       30.21S
MOBRIDGE       CLOUDY    62  36  37 VRB3      30.21S
RAPID CITY     CLOUDY    47  39  74 NE6       30.22F
$$

  *****  SOME WEATHER IN NEARBY STATES *****

CITY           SKY/WX    TMP DP  RH WIND       PRES   REMARKS
GLASGOW MT     LGT RAIN  65  31  28 SE20      30.03F
GREAT FALLS MT SUNNY     60  35  39 VRB5      29.93F
CHEYENNE WY    CLOUDY    51  40  65 S13       30.15S
SCOTTSBLUFF NE CLOUDY    53  35  50 SE10      30.17R
OMAHA NE       CLOUDY    66  53  63 NE9       30.07F
DES MOINES IA  CLOUDY    69  58  67 NE13      30.07F
DAVENPORT IA   CLOUDY    67  60  78 NE9       30.12R
CHICAGO IL     CLOUDY    69  58  67 NW9       30.09S
EAU CLAIRE WI  SUNNY     66  32  28 N8        30.17R
LA CROSSE WI   MOSUNNY   70  36  28 N10       30.14R
$$

  *****  SOME NATIONAL WEATHER *****

CITY           SKY/WX    TMP DP  RH WIND       PRES   REMARKS
LA GUARDIA NY  MOSUNNY   82  43  25 S15G22    30.17F
RALEIGH NC     MOSUNNY   79  59  50 SW12      30.31F
ATLANTA GA     PTSUNNY   79  48  33 VRB5      30.32S
NEW ORLEANS LA PTSUNNY   80  61  52 SE10      30.18S
OKLAHOMA CITY  PTSUNNY   78  64  61 S17G25    30.07S
ALBUQUERQUE NM MOSUNNY   70  38  31 VRB3      30.02F
SALT LAKE CITY MOSUNNY   69  40  34 VRB5      29.94F
LOS ANGELES CA PTSUNNY   60  51  72 W6        29.98R
BOISE ID       SUNNY     72  40  31 SE15G22   29.88F
SEATTLE WA     MOSUNNY   53  44  71 SW17      29.93R
$$

*** WEATHER ACROSS MANITOBA...SASKATCHEWAN AND ONTARIO ***
                ***ONTARIO***

CITY           SKY/WX    TMP DP  RH WIND       PRES   REMARKS
GERALDTON      PTSUNNY   50  39  66 NW10      30.08R
THUNDER BAY    MOSUNNY   63  32  31 NW7G21    30.13R
SIOUX LOOKOUT  MOSUNNY   52  36  54 NW7G17    30.18R
TORONTO        LGT RAIN  72  50  46 SW13      30.03R
BIG TROUT LK   LGT RAIN  39  36  87 W10G17    29.98S
PICKLE LAKE    PTSUNNY   48  28  46 W15G25    30.07S
DRYDEN         MOSUNNY   55  32  41 W14G20    30.18S
KENORA         MOSUNNY   55  30  38 W12       30.22R
$$
                *** MANITOBA***

CITY           SKY/WX    TMP DP  RH WIND       PRES   REMARKS
BRANDON        MOSUNNY   59  34  38 SW14G20   30.21S
DAUPHIN        SUNNY     59  32  36 CALM      30.18F
ISLAND LAKE    PTSUNNY   45  27  49 W15G21    30.08R
PILOT MOUND      N/A     59  27  29 W7          N/A
THE PAS        PTSUNNY   45  23  42 NW13G21   30.18R
THOMPSON       CLOUDY    34  19  55 NW18G25   30.08R WCI  23
WINNIPEG       MOSUNNY   61  30  31 W14G21    30.20S
LYNN LAKE      FLURRIES  30  19  64 W16G22    30.09R WCI  19
CHURCHILL      FLURRIES  25  18  74 NW18G28   29.90S WCI  11
GILLAM         CLOUDY    34  23  64 W14       30.01R WCI  24
$$
                ***SASKATCHEWAN***

CITY           SKY/WX    TMP DP  RH WIND       PRES   REMARKS
ESTEVAN        MOSUNNY   63  27  25 S8        30.17F
KINDERSLEY     PTSUNNY   61  27  27 SE18G28   30.01F
LLOYDMINSTER   CLOUDY    48  34  57 NE9       30.05S
PRINCE ALBERT  MOSUNNY   52  28  40 VRB7      30.12F
REGINA         MOSUNNY   59  28  31 SE10G20   30.14F


USA.gov is the U.S. government's official web portal to all federal, state and local government web resources and services.